Weather reports worldwide

Advertisment
Lindenberg, Germany (10393): temperature & dewpoint: 20.09.2018 17:00:00 - 26.09.2018 17:00:00 (CEST)Lindenberg, Germany (10393): temperature 5cm & temperature -5cm: 20.09.2018 17:00:00 - 26.09.2018 17:00:00 (CEST)Lindenberg, Germany (10393): temperature -20cm & temperature -100cm: 20.09.2018 17:00:00 - 26.09.2018 17:00:00 (CEST)Lindenberg, Germany (10393): wind speed & gusts: 20.09.2018 17:00:00 - 26.09.2018 17:00:00 (CEST)Lindenberg, Germany (10393): wind direction: 20.09.2018 17:00:00 - 26.09.2018 17:00:00 (CEST)Lindenberg, Germany (10393): reduced air pressure: 20.09.2018 17:00:00 - 26.09.2018 17:00:00 (CEST)Lindenberg, Germany (10393): visibility: 20.09.2018 17:00:00 - 26.09.2018 17:00:00 (CEST)Lindenberg, Germany (10393): sunshine duration: 20.09.2018 17:00:00 - 26.09.2018 17:00:00 (CEST)Lindenberg, Germany (10393): precipitation: 20.09.2018 17:00:00 - 26.09.2018 17:00:00 (CEST)
Date & Time tt [°C] td [°C] tt 5cm [°C] tt -5cm [°C] tt -20cm [°C] tt -100cm [°C] ff [km/h] ff [kn] fx [km/h] fx [kn] dd ppp [hPa] vv [km] sd [min] rr [mm]
26.09.2018 17:00:00 15,4 1,4 15,8 14,1 13,2 17,2 29 15 44 24 WSW 1029,3 50 57 0,0
26.09.2018 16:00:00 15,2 1,8 15,2 14,2 12,9 17,3 23 12 43 23 SW 1030,1 50 10 0,0
26.09.2018 15:00:00 14,9 1,1 15,6 15,3 12,4 17,3 27 15 45 25 SW 1031,4 50 60 0,0
26.09.2018 14:00:00 14,3 1,4 16,0 14,4 11,9 17,3 23 12 40 22 SW 1032,2 50 25 0,0
26.09.2018 13:00:00 13,2 1,5 14,7 14,5 11,2 17,4 22 12 46 25 SW 1033,6 50 57 0,0
26.09.2018 12:00:00 12,4 1,7 13,6 13,7 10,5 17,4 23 12 37 20 SW 1034,1 50 51 0,0
26.09.2018 11:00:00 11,3 3,1 14,6 12,2 9,9 17,4 20 11 32 18 SW 1034,9 50 57 0,0
26.09.2018 10:00:00 7,5 2,3 8,1 8,5 9,6 17,4 16 9 27 15 SW 1035,3 50 5 0,0
26.09.2018 09:00:00 6,5 2,3 7,2 7,0 9,6 17,5 9 5 22 12 S 1035,5 40 28 0,0
26.09.2018 08:00:00 4,8 1,5 4,2 5,1 9,7 17,5 10 6 21 11 SSW 1035,7 40 0 0,0
26.09.2018 07:00:00 3,7 1,2 3,1 4,6 10,0 17,5 9 5 17 9 S 1036,2 30 0 0,0
26.09.2018 06:00:00 3,6 0,9 2,4 4,4 10,2 17,5 9 5 16 9 S 1036,7 40 0 0,0
26.09.2018 05:00:00 4,3 0,9 2,4 4,7 10,5 17,6 10 5 18 10 SSW 1036,8 40 0 0,0
26.09.2018 04:00:00 4,0 1,2 2,1 4,9 10,9 17,6 10 6 15 8 S 1036,9 40 0 0,0
26.09.2018 03:00:00 5,0 1,2 1,8 5,3 11,2 17,6 10 5 13 7 SW 1037,7 40 0 0,0
26.09.2018 02:00:00 5,1 1,5 2,2 5,6 11,6 17,6 9 5 14 7 WSW 1037,8 40 0 0,0
26.09.2018 01:00:00 5,2 1,5 2,2 6,1 12,0 17,7 9 5 14 7 WSW 1038,0 40 0 0,0
26.09.2018 00:00:00 5,8 1,9 2,9 6,6 12,5 17,7 8 4 13 7 WSW 1038,5 40 0 0,0
25.09.2018 23:00:00 6,1 2,2 3,3 7,3 12,9 17,7 8 4 11 6 SW 1038,4 40 0 0,0
25.09.2018 22:00:00 6,8 2,2 3,9 8,0 13,4 17,8 8 5 11 6 W 1038,2 50 0 0,0
25.09.2018 21:00:00 7,3 3,4 4,2 8,9 13,9 17,8 9 5 12 7 W 1038,2 50 0 0,0
25.09.2018 20:00:00 8,1 3,1 5,0 10,0 14,4 17,9 8 5 13 7 WNW 1037,8 50 0 0,0
25.09.2018 19:00:00 9,6 2,9 7,1 11,9 14,6 17,9 7 4 25 13 WNW 1037,4 50 50 0,0
25.09.2018 18:00:00 12,8 2,1 13,0 14,0 14,7 17,9 10 6 29 16 WNW 1036,8 50 52 0,0
25.09.2018 17:00:00 12,9 1,0 12,9 16,0 14,5 18,0 11 6 30 16 WNW 1036,6 50 45 0,0
25.09.2018 16:00:00 13,0 1,8 14,0 16,9 14,0 18,0 15 8 32 17 W 1036,8 50 55 0,0
25.09.2018 15:00:00 13,2 1,9 16,5 17,7 13,4 18,0 13 7 30 16 W 1037,0 50 45 0,0
25.09.2018 14:00:00 12,7 2,3 14,7 17,5 12,6 18,1 16 9 37 20 WNW 1036,9 40 56 0,0
25.09.2018 13:00:00 12,3 3,4 15,8 16,2 11,7 18,1 15 8 29 16 W 1036,6 40 48 0,0
25.09.2018 12:00:00 11,4 5,6 14,8 14,7 10,9 18,1 14 8 28 15 WNW 1036,5 40 59 0,0
25.09.2018 11:00:00 9,4 4,9 11,7 12,0 10,2 18,2 19 10 29 16 WNW 1036,3 40 60 0,0
25.09.2018 10:00:00 8,0 4,9 9,7 9,4 9,9 18,2 18 10 29 15 WNW 1035,8 40 60 0,0
25.09.2018 09:00:00 6,3 3,9 7,4 6,7 9,9 18,2 18 10 32 18 WNW 1035,1 35 60 0,0
25.09.2018 08:00:00 5,1 3,5 4,3 4,9 10,0 18,3 16 9 28 15 W 1034,3 40 32 0,0
25.09.2018 07:00:00 4,8 3,3 3,8 4,8 10,3 18,3 15 8 24 13 W 1033,7 40 0 0,0
25.09.2018 06:00:00 5,1 3,5 4,1 5,0 10,5 18,3 15 8 29 16 W 1033,0 40 0 0,0
25.09.2018 05:00:00 5,4 3,6 4,4 5,3 10,8 18,4 16 9 31 17 WNW 1032,4 40 0 0,0
25.09.2018 04:00:00 5,7 3,7 4,6 5,5 11,1 18,4 16 9 30 16 WNW 1031,9 40 0 0,0
25.09.2018 03:00:00 6,0 3,7 4,8 5,9 11,4 18,4 18 10 33 18 WNW 1031,5 45 0 0,0
25.09.2018 02:00:00 6,1 3,8 4,8 6,3 11,7 18,4 16 9 29 15 WNW 1030,8 45 0 0,0
25.09.2018 01:00:00 6,1 4,1 4,8 6,8 12,0 18,5 14 7 21 12 W 1030,4 45 0 0,3
25.09.2018 00:00:00 5,7 4,4 3,8 7,2 12,3 18,5 11 6 35 19 WNW 1029,9 50 0 0,0
24.09.2018 23:00:00 6,7 5,0 6,0 8,1 12,5 18,5 13 7 17 9 W 1029,1 50 0 0,0
24.09.2018 22:00:00 5,9 4,9 4,9 8,2 12,8 18,6 9 5 20 11 NW 1028,5 50 0 1,0
24.09.2018 21:00:00 5,7 4,9 4,9 8,5 13,1 18,6 5 3 23 13 NW 1027,6 50 0 0,1
24.09.2018 20:00:00 7,4 6,0 6,4 9,2 13,4 18,6 9 5 23 12 NW 1026,6 40 0 1,0
24.09.2018 19:00:00 7,8 5,9 6,6 9,7 13,7 18,7 11 6 42 23 WNW 1025,8 45 0 2,0
24.09.2018 18:00:00 8,3 5,5 7,6 10,7 13,8 18,7 16 9 28 15 WNW 1025,5 30 13 2,3
24.09.2018 17:00:00 9,4 6,1 9,0 11,9 13,8 18,7 15 8 35 19 W 1025,1 50 38 0,0
24.09.2018 16:00:00 9,2 5,0 9,5 11,0 13,9 18,8 19 11 52 28 WNW 1024,8 30 6 1,4
24.09.2018 15:00:00 7,1 4,6 7,1 11,4 13,9 18,8 16 9 65 35 WNW 1025,3 12 18 2,2
24.09.2018 14:00:00 12,5 3,0 14,4 14,2 13,5 18,8 27 15 55 30 W 1023,5 30 42 0,0
24.09.2018 13:00:00 12,0 4,3 13,1 13,4 13,2 18,9 29 16 53 29 WNW 1023,1 30 32 0,0
24.09.2018 12:00:00 11,4 4,8 13,3 12,2 12,9 18,9 29 16 56 30 WNW 1022,6 30 9 0,0
24.09.2018 11:00:00 10,4 4,9 11,1 12,1 12,6 18,9 34 18 60 32 WNW 1022,1 30 30 0,0
24.09.2018 10:00:00 9,6 5,2 10,6 10,6 12,5 19,0 33 18 56 31 WNW 1020,9 30 29 0,0
24.09.2018 09:00:00 8,5 5,4 8,9 9,2 12,5 19,0 24 13 42 23 W 1020,1 30 10 0,0
24.09.2018 08:00:00 7,8 5,4 7,3 8,1 12,7 19,0 24 13 40 21 W 1019,3 30 15 0,0
24.09.2018 07:00:00 7,8 5,8 7,4 8,5 12,9 19,0 22 12 45 24 W 1018,7 25 0 0,0
24.09.2018 06:00:00 8,2 6,2 7,7 8,6 13,1 19,1 27 14 49 26 WNW 1018,0 30 0 0,0
24.09.2018 05:00:00 8,6 6,5 8,2 9,1 13,3 19,1 25 14 46 25 WNW 1017,1 30 0 0,0
24.09.2018 04:00:00 8,6 6,8 8,1 9,1 13,4 19,1 23 13 40 22 WNW 1015,9 30 0 0,0
24.09.2018 03:00:00 8,8 7,1 8,5 9,5 13,6 19,1 23 12 48 26 W 1014,8 30 0 0,0
24.09.2018 02:00:00 8,8 7,4 8,3 9,5 13,8 19,2 19 10 34 18 W 1013,4 40 0 0,0
24.09.2018 01:00:00 8,4 7,2 8,0 9,7 14,0 19,2 19 10 32 17 WNW 1012,2 20 0 0,1
24.09.2018 00:00:00 8,2 7,3 7,9 9,9 14,3 19,2 18 10 31 17 WNW 1011,4 12 0 0,8
23.09.2018 23:00:00 8,1 7,0 7,7 10,1 14,5 19,2 10 5 35 19 NNW 1009,4 10 0 0,9
23.09.2018 22:00:00 8,6 7,5 8,3 10,6 14,8 19,3 14 7 38 20 NNW 1008,2 15 0 1,0
23.09.2018 21:00:00 9,0 8,0 8,7 10,9 15,1 19,3 11 6 30 16 N 1006,3 10 0 0,7
23.09.2018 20:00:00 9,3 8,4 9,0 11,2 15,3 19,3 12 6 34 19 NNE 1005,1 15 0 0,6
23.09.2018 19:00:00 9,7 8,9 9,6 11,7 15,6 19,4 14 8 29 16 NNE 1004,6 6 0 5,1
23.09.2018 18:00:00 10,2 9,5 10,2 12,4 15,8 19,4 10 5 22 12 NE 1006,0 4,0 0 3,0
23.09.2018 17:00:00 10,6 10,0 10,6 13,1 16,0 19,4 12 6 23 13 E 1006,4 4,0 0 2,9
23.09.2018 16:00:00 10,8 9,7 10,7 13,8 16,1 19,4 8 4 15 8 NE 1009,2 4,0 0 2,1
23.09.2018 15:00:00 11,8 9,2 11,2 15,0 16,0 19,5 7 4 13 7 E 1010,0 10 0 0,4
23.09.2018 14:00:00 12,7 8,1 12,9 15,7 15,8 19,5 4 2 14 7 SSE 1012,0 30 0 0,0
23.09.2018 13:00:00 12,8 7,6 13,5 16,1 15,5 19,5 5 3 14 7 S 1013,4 30 0 0,0
23.09.2018 12:00:00 12,9 6,9 14,5 16,0 15,2 19,5 5 3 16 8 S 1013,9 40 0 0,0
23.09.2018 11:00:00 12,1 6,9 13,5 14,8 14,9 19,6 10 6 18 10 WSW 1014,7 30 0 0,0
23.09.2018 10:00:00 11,6 7,5 12,8 13,8 14,8 19,6 9 5 21 12 W 1015,0 30 7 0,0
23.09.2018 09:00:00 10,8 8,2 11,4 12,0 14,7 19,6 10 5 18 10 WSW 1015,0 20 0 0,0
23.09.2018 08:00:00 9,9 8,4 9,7 10,8 14,9 19,6 11 6 19 10 WSW 1015,2 15 0 0,0
23.09.2018 07:00:00 9,4 8,1 9,0 10,3 15,1 19,7 13 7 17 9 WSW 1015,5 15 0 0,0
23.09.2018 06:00:00 9,3 8,0 8,4 10,3 15,3 19,7 10 5 21 12 WSW 1015,8 25 0 0,0
23.09.2018 05:00:00 10,0 8,0 9,8 11,2 15,4 19,7 13 7 23 12 W 1016,2 25 0 0,0
23.09.2018 04:00:00 10,1 8,3 9,8 11,3 15,6 19,7 13 7 22 12 WSW 1016,5 25 0 0,0
23.09.2018 03:00:00 10,2 8,2 9,7 11,5 15,7 19,7 12 6 20 11 WSW 1016,7 30 0 0,1
23.09.2018 02:00:00 10,6 8,1 10,1 11,6 15,9 19,8 12 7 23 12 W 1016,9 30 0 0,0
23.09.2018 01:00:00 11,2 8,0 10,5 11,8 16,1 19,8 14 8 22 12 W 1017,1 30 0 0,0
23.09.2018 00:00:00 12,0 7,5 11,2 12,0 16,3 19,8 12 7 37 20 WNW 1016,9 30 0 0,0
22.09.2018 23:00:00 13,0 5,9 11,4 12,1 16,5 19,8 20 11 35 19 WSW 1017,0 40 0 0,0
22.09.2018 22:00:00 13,1 5,0 11,9 12,2 16,8 19,8 11 6 19 10 SW 1016,6 40 0 0,0
22.09.2018 21:00:00 14,0 5,1 12,8 12,6 17,1 19,9 12 7 21 11 SW 1016,8 50 0 0,0
22.09.2018 20:00:00 14,5 5,0 13,2 13,0 17,4 19,9 13 7 26 14 SW 1016,9 50 0 0,0
22.09.2018 19:00:00 15,3 5,0 14,2 13,8 17,6 19,9 16 9 35 19 WSW 1016,8 50 0 0,0
22.09.2018 18:00:00 16,1 4,4 15,5 15,1 17,7 19,9 25 14 37 20 WSW 1017,0 50 0 0,0
22.09.2018 17:00:00 16,4 5,0 16,3 16,2 17,7 19,9 26 14 46 25 WSW 1017,2 40 15 0,0
22.09.2018 16:00:00 16,6 5,5 17,0 16,9 17,5 19,9 26 14 42 23 WSW 1017,5 35 30 0,0
22.09.2018 15:00:00 16,4 5,5 17,1 18,1 17,2 19,9 25 13 45 24 WSW 1017,5 35 24 0,0
22.09.2018 14:00:00 15,0 6,2 15,4 15,6 17,1 20,0 24 13 40 22 W 1017,9 40 2 0,0
22.09.2018 13:00:00 14,7 6,9 15,3 16,2 16,8 20,0 22 12 37 20 WSW 1018,2 40 9 0,0
22.09.2018 12:00:00 14,4 6,5 15,6 16,8 16,5 20,0 22 12 49 27 W 1018,4 35 36 0,0
22.09.2018 11:00:00 13,7 7,0 14,7 15,4 16,2 20,0 21 12 44 24 W 1018,1 40 24 0,0
22.09.2018 10:00:00 12,8 6,7 14,2 13,2 16,2 20,0 24 13 46 25 W 1017,8 40 12 0,0
22.09.2018 09:00:00 11,4 6,8 11,3 11,6 16,4 20,0 23 13 41 22 WSW 1017,1 40 0 0,1
22.09.2018 08:00:00 11,1 6,0 10,7 10,7 16,7 20,0 17 9 30 16 SW 1016,4 15 0 0,0
22.09.2018 07:00:00 10,2 6,0 9,5 10,0 17,1 20,0 15 8 32 17 SW 1016,0 35 0 0,0
22.09.2018 06:00:00 10,7 6,4 9,5 10,4 17,5 20,0 18 10 35 19 SW 1015,4 40 0 0,0
22.09.2018 05:00:00 11,3 7,2 10,6 11,2 17,9 19,9 20 11 35 19 WSW 1015,0 40 0 0,0
22.09.2018 04:00:00 11,9 8,1 11,3 11,9 18,3 19,9 24 13 35 19 WSW 1014,6 40 0 0,0
22.09.2018 03:00:00 11,4 9,0 10,6 11,9 18,8 19,9 19 10 31 17 SW 1014,2 40 0 0,0
22.09.2018 02:00:00 11,7 8,4 10,5 12,1 19,3 19,9 18 10 30 16 WSW 1014,0 40 0 0,0
22.09.2018 01:00:00 12,4 9,1 11,2 12,9 19,9 19,9 19 10 33 18 WSW 1013,5 40 0 0,0
22.09.2018 00:00:00 12,8 10,1 12,0 13,8 20,5 19,9 20 11 32 17 WSW 1013,1 40 0 0,0
21.09.2018 23:00:00 12,8 10,8 12,4 14,6 21,1 19,9 17 9 29 16 WSW 1012,3 40 0 0,0
21.09.2018 22:00:00 12,8 11,2 12,6 15,6 21,8 19,9 18 10 27 15 WSW 1011,2 30 0 0,2
21.09.2018 21:00:00 13,1 10,9 12,9 16,1 22,6 19,9 13 7 32 17 W 1009,6 20 0 0,0
21.09.2018 20:00:00 13,5 10,5 13,4 16,6 23,5 19,9 20 11 54 29 WNW 1008,2 40 0 0,1
21.09.2018 19:00:00 14,5 10,1 13,3 18,2 24,4 19,9 34 18 57 31 WNW 1008,1 40 0 6,3
21.09.2018 18:00:00 19,1 14,6 17,4 26,4 24,5 19,9 40 22 67 36 WNW 1005,2 3,0 0 0,0
21.09.2018 17:00:00 28,2 11,5 27,8 28,6 24,3 19,9 32 17 60 33 WSW 1003,5 15 7 0,0
21.09.2018 16:00:00 29,7 12,2 30,5 30,2 23,9 19,9 25 13 52 28 SW 1003,5 10 28 0,0
21.09.2018 15:00:00 29,6 11,0 30,4 30,8 23,2 19,9 28 15 49 26 SW 1004,1 15 45 0,0
21.09.2018 14:00:00 29,2 10,9 30,4 30,6 22,4 19,9 24 13 49 26 SW 1005,1 20 35 0,0
21.09.2018 13:00:00 28,6 11,5 30,4 30,4 21,6 19,9 19 10 35 19 SSW 1006,3 20 60 0,0
21.09.2018 12:00:00 27,4 11,5 29,1 27,6 20,8 19,9 18 10 35 19 SSW 1007,3 25 60 0,0
21.09.2018 11:00:00 25,2 12,1 27,8 24,6 20,2 19,8 17 9 36 19 S 1008,2 25 60 0,0
21.09.2018 10:00:00 22,9 13,4 24,6 20,8 20,1 19,8 10 5 24 13 S 1009,0 20 53 0,0
21.09.2018 09:00:00 18,9 12,9 19,1 18,0 20,2 19,8 10 5 19 10 SSE 1009,9 30 28 0,0
21.09.2018 08:00:00 17,3 12,9 16,7 16,9 20,4 19,8 9 5 18 10 SSE 1010,3 25 28 0,0
21.09.2018 07:00:00 16,9 12,8 15,3 16,8 20,7 19,8 9 5 17 9 SSE 1010,6 20 0 0,0
21.09.2018 06:00:00 17,1 12,7 15,5 17,1 21,1 19,8 10 5 21 11 SSE 1011,2 25 0 0,0
21.09.2018 05:00:00 17,4 12,7 15,7 17,4 21,4 19,8 9 5 19 11 SSE 1011,8 20 0 0,0
21.09.2018 04:00:00 18,0 12,6 16,4 17,9 21,8 19,8 10 5 18 10 SSE 1012,2 20 0 0,0
21.09.2018 03:00:00 17,9 12,7 15,7 18,3 22,2 19,7 10 5 17 9 SSE 1012,6 20 0 0,0
21.09.2018 02:00:00 18,5 12,9 16,4 19,0 22,6 19,7 9 5 17 9 S 1012,9 20 0 0,0
21.09.2018 01:00:00 20,0 13,2 17,6 19,6 23,0 19,7 10 5 15 8 SSE 1013,2 20 0 0,0
21.09.2018 00:00:00 21,1 13,3 18,6 20,3 23,4 19,7 9 5 14 8 S 1013,7 20 0 0,0
20.09.2018 23:00:00 21,9 13,8 19,2 21,1 23,9 19,7 9 5 13 7 SSE 1013,9 20 0 0,0
20.09.2018 22:00:00 22,4 13,5 18,3 22,0 24,4 19,7 9 5 13 7 S 1014,1 25 0 0,0
20.09.2018 21:00:00 23,4 13,2 19,2 23,1 24,9 19,7 9 5 12 6 SSE 1014,4 25 0 0,0
20.09.2018 20:00:00 23,8 13,2 19,8 24,6 25,3 19,7 6 3 10 6 SSE 1014,4 25 0 0,0
20.09.2018 19:00:00 26,0 13,6 22,4 27,2 25,4 19,7 8 4 25 14 SW 1014,4 25 32 0,0
20.09.2018 18:00:00 28,5 12,7 28,0 29,9 25,3 19,7 14 8 34 18 WSW 1014,8 20 59 0,0
20.09.2018 17:00:00 29,1 13,1 31,1 32,0 24,8 19,7 18 10 35 19 WSW 1015,0 20 59 0,0

tt = temperature
td = dewpoint
tt 5cm = temperature 5cm
tt -5cm = temperature -5cm
tt -20cm = temperature -20cm
tt -100cm = temperature -100cm
ff = wind speed
fx = gusts
dd = wind direction
ppp = reduced air pressure
vv = visibility
sd = sunshine duration
rr = precipitation

Next stations